THOR AGENA B R/B, 1807

Orbit data source: Space-Track

THOR AGENA B R/B, 1807 is space debris in LEO originally from a launch on Mon, 29 Nov 1965 UTC launched from the Air Force Western Test Range (AFWTR). Debris objects in space refer to the collection of defunct objects orbiting the Earth. Examples of debris include non-operational satellites, rocket bodies, and fragments generated from explosions, collisions, or faulty payload assembly.

Loading next visibility...
Identifier
1807, 1965-098C
Orbit
LEO
Country
Flag of USUS
Related business
Manufacturer
LMSC
Mission
Spacecraft
Bus & Motor
AGENA B, Unknown motor
Mass
600 kg wet, 600 kg dry
Launch date (UTC)
1965-11-29 (60 years ago)
Launch vehicle
Unknown
Launch site
Air Force Western Test Range (AFWTR)
Object type
Payload
Rocket body
Debris
Shape & HBR
Cyl + 1 Nozzle, 3.1 m
Radar Cross Section
8.306 m², Large (>1 m²)

Expand to show TLE details & history
Last TLE update: 13 hours ago

TLE from 13 hours ago
0 THOR AGENA B R/B
1 01807U 65098C   25242.81483731  .00000958  00000-0  32090-3 0  9993
2 01807  79.8357 287.4801 1331845 259.7524  85.1137 12.27613658637660
Epoch: 2025-08-30T19:33Z
TLE epoch observation values (Epoch: 2025-08-30T19:33:21.943Z)
Latitude
-0.00001°
Longitude
14.89494°
Altitude
1,612.649 km
Speed
7.042 km/s
True Right ascension
19h 09m 55s
True Declination
0° 00' 00"
Sunlit
Object was in full shadow at epoch
Visualization orbit readout
Latitude
Unknown
Longitude
Unknown
Altitude
Unknown
Speed
Unknown
Apparent Right ascension
Unknown
Apparent Declination
Unknown
Sunlit
N/A
Visualization observer readout
Local Sidereal Time
00:09:55
Azimuth
Unknown
Elevation
Unknown
Doppler factor
Unknown
Orbital elements
Apogee altitude
2,613.807 km
Perigee altitude
500.14 km
Semi-major axis
7,935.11 km
Eccentricity
0.13318
Inclination
79.8357°
RAAN
287.4801°
Arg. of periapsis
259.7524°
True anomaly
100.35661°
Mean anomaly
85.1137°
Eccentric anomaly
92.73591°
Mean motion
3.07053 °/min
Orbital period
117.24 mins
BSTAR
0.0003209
Loading maneuver chart data...
Computing Atmospheric mass density...
Loading historical data...
Loading historical data...
Loading historical data...
Loading historical data...
Loading historical data...
Loading historical data...
Loading historical data...

Documentation

Showing up to 5 results
|